Date String (YYYY-MM-DD hh:mm:ss) UTC,Instrument flags,absolute air pressure of the measurement (hPa),sample flow rate (lpm),inlet stack bypass flow (lpm),air temperature of the measurement (°C),ambient temperature measured by the external sensor (°C),aerosol sample conditioner tube jacket temperature (°C),OPC LED temperature (°C),internal box temperature (°C),relative humidity of the measurement (%),span deviation,mass concentration of particles derived from Lorenz-Mie calculation of OPC scattering (μg/m³),mass concentration of particles derived from Lorenz-Mie calculation of OPC scattering (μg/m³),mass concentration of particles derived from Lorenz-Mie calculation of OPC scattering (μg/m³)
DateTimeUTC,F1_M11,P_M11,Q1_M11,Q2_M11,T1_M11,T2_M11,T3_M11,T4_M11,T5_M11,U1_M11,ZSPAN_M11,X0_M11,X2_M11,X1_M11
2024-05-08 23:00:00,SystemResetWarning,0822.7,5.00,000.00,025.3,024.6,000.0,033.4,027.0,008.8,0000.0,0002.38,0000.45,0000.30
2024-05-08 23:01:00,SystemResetWarning,0822.9,5.00,000.00,025.3,024.6,000.0,033.4,027.0,009.0,0000.0,0002.42,0000.46,0000.29
2024-05-08 23:02:00,SystemResetWarning,0822.9,5.01,000.00,025.3,024.6,000.0,033.4,027.0,009.3,0000.0,0001.94,0000.46,0000.29
2024-05-08 23:03:00,SystemResetWarning,0822.7,5.00,000.00,025.3,024.6,000.0,033.5,027.0,009.3,0000.0,0001.73,0000.47,0000.29
2024-05-08 23:04:00,SystemResetWarning,0822.7,5.00,000.00,025.3,024.6,000.0,033.5,027.0,008.8,0000.0,0001.74,0000.47,0000.29
2024-05-08 23:05:00,SystemResetWarning,0822.7,5.01,000.00,025.3,024.6,000.0,033.5,027.0,008.7,0000.0,0001.75,0000.48,0000.29
2024-05-08 23:06:00,SystemResetWarning,0822.7,4.99,000.00,025.3,024.6,000.0,033.5,027.0,008.8,0000.0,0001.74,0000.48,0000.28
2024-05-08 23:07:00,SystemResetWarning,0822.9,4.99,000.00,025.3,024.6,000.0,033.5,027.0,008.8,0000.0,0001.19,0000.47,0000.28
2024-05-08 23:08:00,SystemResetWarning,0822.9,5.00,000.00,025.3,024.6,000.0,033.5,027.0,008.7,0000.0,0000.85,0000.47,0000.27
2024-05-08 23:09:00,SystemResetWarning,0823.1,5.01,000.00,025.3,024.6,000.0,033.5,027.0,008.7,0000.0,0000.81,0000.45,0000.27
2024-05-08 23:10:00,SystemResetWarning,0822.9,5.01,000.00,025.3,024.6,000.0,033.5,027.1,008.8,0000.0,0000.79,0000.44,0000.27
2024-05-08 23:11:00,SystemResetWarning,0823.1,4.98,000.00,025.3,024.6,000.0,033.5,027.1,008.7,0000.0,0000.85,0000.44,0000.27
2024-05-08 23:12:00,SystemResetWarning,0822.9,4.99,000.00,025.4,024.7,000.0,033.5,027.1,009.0,0000.0,0000.91,0000.45,0000.27
2024-05-08 23:13:00,SystemResetWarning,0822.9,5.00,000.00,025.4,024.7,000.0,033.5,027.1,009.4,0000.0,0000.87,0000.44,0000.27
2024-05-08 23:14:00,SystemResetWarning,0823.0,5.01,000.00,025.4,024.7,000.0,033.5,027.1,009.2,0000.0,0000.86,0000.43,0000.27
2024-05-08 23:15:00,SystemResetWarning,0822.9,5.00,000.00,025.4,024.7,000.0,033.5,027.2,009.1,0000.0,0000.84,0000.42,0000.26
2024-05-08 23:16:00,SystemResetWarning,0822.9,4.99,000.00,025.4,024.7,000.0,033.6,027.1,008.8,0000.0,0000.83,0000.41,0000.27
2024-05-08 23:17:00,SystemResetWarning,0823.0,4.99,000.00,025.4,024.7,000.0,033.6,027.1,008.7,0000.0,0000.88,0000.43,0000.27
2024-05-08 23:18:00,SystemResetWarning,0822.9,5.01,000.00,025.4,024.7,000.0,033.6,027.2,009.0,0000.0,0000.99,0000.46,0000.27
2024-05-08 23:19:00,SystemResetWarning,0822.9,5.01,000.00,025.4,024.7,000.0,033.6,027.2,008.9,0000.0,0001.11,0000.49,0000.27
2024-05-08 23:20:00,SystemResetWarning,0823.0,5.01,000.00,025.4,024.7,000.0,033.6,027.2,008.9,0000.0,0001.16,0000.50,0000.28
2024-05-08 23:21:00,SystemResetWarning,0823.0,4.99,000.00,025.4,024.7,000.0,033.6,027.2,008.8,0000.0,0001.18,0000.51,0000.28
2024-05-08 23:22:00,SystemResetWarning,0823.0,4.99,000.00,025.5,024.8,000.0,033.6,027.2,009.0,0000.0,0001.10,0000.50,0000.28
2024-05-08 23:23:00,SystemResetWarning,0822.9,4.99,000.00,025.5,024.8,000.0,033.6,027.2,008.9,0000.0,0001.08,0000.50,0000.28
2024-05-08 23:24:00,SystemResetWarning,0823.0,4.99,000.00,025.5,024.7,000.0,033.6,027.2,008.9,0000.0,0001.10,0000.51,0000.29
2024-05-08 23:25:00,SystemResetWarning,0823.0,5.01,000.00,025.5,024.8,000.0,033.7,027.2,008.7,0000.0,0001.16,0000.52,0000.29
2024-05-08 23:26:00,SystemResetWarning,0823.0,5.01,000.00,025.5,024.8,000.0,033.7,027.2,008.7,0000.0,0001.25,0000.52,0000.30
2024-05-08 23:27:00,SystemResetWarning,0823.0,5.01,000.00,025.5,024.8,000.0,033.7,027.3,008.7,0000.0,0001.24,0000.52,0000.29
2024-05-08 23:28:00,SystemResetWarning,0823.0,5.01,000.00,025.5,024.8,000.0,033.7,027.3,008.9,0000.0,0001.16,0000.49,0000.29
2024-05-08 23:29:00,SystemResetWarning,0823.1,4.99,000.00,025.5,024.8,000.0,033.7,027.3,009.2,0000.0,0001.10,0000.47,0000.29
2024-05-08 23:30:00,SystemResetWarning,0823.1,5.00,000.00,025.5,024.8,000.0,033.7,027.3,008.9,0000.0,0000.99,0000.45,0000.29
2024-05-08 23:31:00,SystemResetWarning,0823.1,5.01,000.00,025.5,024.8,000.0,033.7,027.3,008.9,0000.0,0001.00,0000.45,0000.29
2024-05-08 23:32:00,SystemResetWarning,0823.1,5.00,000.00,025.5,024.8,000.0,033.7,027.3,008.9,0000.0,0001.12,0000.48,0000.29
2024-05-08 23:33:00,SystemResetWarning,0823.1,4.98,000.00,025.6,024.9,000.0,033.7,027.3,008.9,0000.0,0001.13,0000.49,0000.29
2024-05-08 23:34:00,SystemResetWarning,0823.1,5.01,000.00,025.6,024.9,000.0,033.7,027.3,009.0,0000.0,0001.77,0000.51,0000.29
2024-05-08 23:35:00,SystemResetWarning,0823.2,5.01,000.00,025.6,024.9,000.0,033.7,027.3,008.8,0000.0,0002.76,0000.50,0000.29
2024-05-08 23:36:00,SystemResetWarning,0823.2,5.01,000.00,025.6,024.9,000.0,033.7,027.3,008.9,0000.0,0002.73,0000.50,0000.29
2024-05-08 23:37:00,SystemResetWarning,0823.2,5.00,000.00,025.6,024.9,000.0,033.7,027.3,008.9,0000.0,0002.72,0000.51,0000.28
2024-05-08 23:38:00,SystemResetWarning,0823.3,4.99,000.00,025.6,024.9,000.0,033.7,027.3,008.8,0000.0,0003.51,0000.53,0000.29
2024-05-08 23:39:00,SystemResetWarning,0823.3,4.99,000.00,025.6,024.9,000.0,033.7,027.4,008.9,0000.0,0004.14,0000.54,0000.29
2024-05-08 23:40:00,SystemResetWarning,0823.3,4.99,000.00,025.6,024.9,000.0,033.7,027.4,009.3,0000.0,0004.18,0000.56,0000.29
2024-05-08 23:41:00,SystemResetWarning,0823.3,5.00,000.00,025.6,024.9,000.0,033.8,027.4,009.3,0000.0,0004.14,0000.55,0000.29
2024-05-08 23:42:00,SystemResetWarning,0823.3,5.01,000.00,025.6,024.9,000.0,033.8,027.3,009.3,0000.0,0004.10,0000.55,0000.29
2024-05-08 23:43:00,SystemResetWarning,0823.3,5.01,000.00,025.6,025.0,000.0,033.8,027.4,009.2,0000.0,0004.00,0000.54,0000.30
2024-05-08 23:44:00,SystemResetWarning,0823.4,4.99,000.00,025.6,025.0,000.0,033.8,027.4,009.3,0000.0,0005.00,0000.54,0000.30
2024-05-08 23:45:00,SystemResetWarning,0823.4,5.00,000.00,025.6,025.0,000.0,033.8,027.4,009.1,0000.0,0004.55,0000.53,0000.31
2024-05-08 23:46:00,SystemResetWarning,0823.4,5.01,000.00,025.7,025.0,000.0,033.8,027.4,009.3,0000.0,0003.72,0000.54,0000.31
2024-05-08 23:47:00,SystemResetWarning,0823.4,5.00,000.00,025.7,025.0,000.0,033.8,027.4,009.2,0000.0,0003.76,0000.55,0000.31
2024-05-08 23:48:00,SystemResetWarning,0823.4,5.00,000.00,025.7,025.0,000.0,033.8,027.4,009.4,0000.0,0003.67,0000.54,0000.31
2024-05-08 23:49:00,SystemResetWarning,0823.4,5.00,000.00,025.7,025.0,000.0,033.8,027.4,009.2,0000.0,0002.96,0000.54,0000.31
2024-05-08 23:50:00,SystemResetWarning,0823.4,5.00,000.00,025.7,025.0,000.0,033.8,027.4,009.1,0000.0,0002.44,0000.56,0000.31
2024-05-08 23:51:00,SystemResetWarning,0823.4,4.99,000.00,025.7,025.0,000.0,033.8,027.4,009.3,0000.0,0002.48,0000.56,0000.31
2024-05-08 23:52:00,SystemResetWarning,0823.5,5.00,000.00,025.7,025.0,000.0,033.9,027.5,009.2,0000.0,0002.51,0000.56,0000.31
2024-05-08 23:53:00,SystemResetWarning,0823.5,5.01,000.00,025.7,025.0,000.0,033.9,027.5,009.0,0000.0,0002.51,0000.55,0000.31
2024-05-08 23:54:00,SystemResetWarning,0823.5,5.01,000.00,025.7,025.0,000.0,033.9,027.5,009.0,0000.0,0002.52,0000.56,0000.31
2024-05-08 23:55:00,SystemResetWarning,0823.5,5.00,000.00,025.7,025.0,000.0,033.9,027.5,009.0,0000.0,0001.97,0000.59,0000.31
2024-05-08 23:56:00,SystemResetWarning,0823.5,4.99,000.00,025.7,025.1,000.0,033.9,027.5,009.0,0000.0,0001.25,0000.58,0000.30
2024-05-08 23:57:00,SystemResetWarning,0823.5,5.00,000.00,025.7,025.1,000.0,033.9,027.5,009.4,0000.0,0001.26,0000.59,0000.30
2024-05-08 23:58:00,SystemResetWarning,0823.6,5.00,000.00,025.8,025.1,000.0,033.9,027.5,009.4,0000.0,0001.39,0000.62,0000.31
2024-05-08 23:59:00,SystemResetWarning,0823.6,5.01,000.00,025.8,025.1,000.0,033.9,027.5,008.9,0000.0,0001.40,0000.61,0000.31
